"Pseudo-MPEC" for C8GK5Z2

Created 2022 Nov 25 8:22:10 UT using Find_Orb

Click here for an explanation of pseudo-MPECs

 
 Astrometry: 
     C8GK5Z2*1C2022 11 23.39982703 54 43.524+47 04 44.94   ~BNAM 20.98GVNEOCPG96
     C8GK5Z2 1C2022 11 23.40570003 54 42.923+47 04 42.53   ~BNAM 21.73GVNEOCPG96
     C8GK5Z2 1C2022 11 23.41157603 54 42.311+47 04 39.68   ~BNAM 21.33GVNEOCPG96
     C8GK5Z2 1C2022 11 23.41743603 54 41.749+47 04 37.06   ~BNAM 21.89GVNEOCPG96
     C8GK5Z2 5C2022 11 23fIC-=/AstrometryZ!64\*FVt#cjRfYredacted;3$`rgP@uQ`xtG37
     C8GK5Z2 5C2022 11 23n)(=sqSX=cRt'vLm/_clickqp1_kYuB@thjyp-Mg;_*hereXk$_AG37
     C8GK5Z2 5C2022 11 23*-QC$G.=GyQwuKKkm;Ecr+=1ivH[CRhtPGu^w8It3tEYg`$+P6ZaG37
     C8GK5Z2 5C2022 11 23%0cME`Z45050H--`W[NQZfor-stexplanation1$7anqHM[e!%5:G37
     C8GK5Z2 KC2022 11 23.46806603 54 36.530+47 04 12.60   ~BNBq       VNEOCPI52
     C8GK5Z2 KC2022 11 23.47336503 54 36.090+47 04 09.50   ~BNBq 22.09GVNEOCPI52
     C8GK5Z2 KC2022 11 23.47865303 54 35.530+47 04 05.80   ~BNBq       VNEOCPI52
     C8GK5Z2 KC2022 11 24.26476903 53 18.680+46 57 53.80   ~BO77       VNEOCPI52
     C8GK5Z2 KC2022 11 24.26864303 53 18.170+46 57 51.50   ~BO77       VNEOCPI52
     C8GK5Z2 KC2022 11 24.27252003 53 17.850+46 57 49.90   ~BO77       VNEOCPI52
     C8GK5Z2 KC2022 11 24.27639803 53 17.420+46 57 48.30   ~BO77       VNEOCPI52
     C8GK5Z2 KC2022 11 25.16094903 51 50.730+46 50 23.10   ~BP4b       VNEOCPV06
     C8GK5Z2 KC2022 11 25.16439603 51 50.400+46 50 20.80   ~BP4b       VNEOCPV06

Station data:
(G37) Lowell Observatory-Discovery Channel Telescope  (N34.744282 W111.422510)  US/Arizona.
   Observer M. Micheli. 4.3-m Lowell Discovery Telescope + CCD.
(G96) Mt. Lemmon Survey  (N32.442751 W110.788720)  US/Arizona.  Observers T.
   A. Pruyne, B. M. Africano, E. J. Christensen, G. A. Farneth, D. C. Fuls,
   A. R. Gibbs, A. D. Grauer, H. Gröller, J. A. Johnson, R. A. Kowalski, S.
   M. Larson, G. J. Leonard, D. Rankin, R. L. Seaman, F. C. Shelly, K. W.
   Wierzchoś. 1.5-m reflector + 10K CCD.
(I52) Steward Observatory, Mt. Lemmon Station  (N32.442544 W110.788920)
   US/Arizona.  Observers T. A. Pruyne, B. M. Africano, E. J. Christensen, G.
   A. Farneth, D. C. Fuls, A. R. Gibbs, A. D. Grauer, H. Gröller, J. A.
   Johnson, R. A. Kowalski, S. M. Larson, G. J. Leonard, D. Rankin, R. L.
   Seaman, F. C. Shelly, K. W. Wierzchoś. 1.0-m reflector + CCD.
(V06) Catalina Sky Survey-Kuiper  (N32.416844 W110.732550)  US/Arizona.
   Observers T. A. Pruyne, B. M. Africano, E. J. Christensen, G. A. Farneth,
   D. C. Fuls, A. R. Gibbs, A. D. Grauer, H. Gröller, J. A. Johnson, R. A.
   Kowalski, S. M. Larson, G. J. Leonard, D. Rankin, R. L. Seaman, F. C.
   Shelly, K. W. Wierzchoś. 1.55-m reflector + CCD.

Orbital elements:  C8GK5Z2
   Perihelion 2023 Dec 9.74909 +/- 318 TT = 17:58:41 (JD 2460288.24909)
Epoch 2022 Nov 25.0 TT = JDT 2459908.5   Earth MOID: 0.8126   AutoNEOCP
M 221.13953360 +/- 60               (J2000 ecliptic)
n   0.36566372 +/- 0.0346           Peri.  270.43488 +/- 39
a   1.93678523 +/- 0.122            Node   298.93179 +/- 7
e   0.1079553 +/- 0.122             Incl.   17.19482 +/- 3.1
P   2.70/984.49d           H 19.3   G  0.15   U 10.5  SR
q 1.72769896 +/- 0.154    Q 2.14587151 +/- 0.429
From 17 observations 2022 Nov. 23-25 (42.3 hr); mean residual 0".32
Residuals in arcseconds: 
221123 G96  .06+  .31-    221123 G37  .15+  .03+    221124 I52  .66-  .35-    
221123 G96  .03+  .11+    221123 G37  .10+  .02-    221124 I52  .13+  .07-    
221123 G96  .11-  .10+    221123 I52  .76-  .60+    221124 I52  .20-  .21+    
221123 G96  .23+  .32+    221123 I52  .19+  .11+    221125 V06  .03-  .34+    
221123 G37  .14+  .04+    221123 I52  .10-  .98-    221125 V06  .16+  .26-    
221123 G37  .18+  .06+    221124 I52  .50+  .08+    

Ephemerides (geocentric):
Date (UTC) HH   RA             Dec           delta  r     elong  mag " sig PA
---- --------  ------------   ------------  ------ ------ -----  --- --------
2022 11 25 08  03 51 33.345   +46 48 53.27  1.1713 2.1027 153.8 22.0 1.60 134
2022 11 25 09  03 51 29.254   +46 48 31.62  1.1712 2.1026 153.8 22.0 1.74 134
2022 11 25 10  03 51 25.163   +46 48 09.92  1.1711 2.1026 153.8 22.0 1.89 134
2022 11 25 11  03 51 21.074   +46 47 48.18  1.1711 2.1026 153.8 22.0 2.04 134
2022 11 25 12  03 51 16.985   +46 47 26.38  1.1710 2.1026 153.8 22.0 2.20 134
2022 11 25 13  03 51 12.897   +46 47 04.54  1.1709 2.1025 153.8 22.0 2.37 134
2022 11 25 14  03 51 08.810   +46 46 42.65  1.1709 2.1025 153.8 22.0 2.54 134
2022 11 25 15  03 51 04.724   +46 46 20.71  1.1708 2.1025 153.9 22.0 2.71 134
2022 11 25 16  03 51 00.639   +46 45 58.72  1.1707 2.1024 153.9 22.0 2.89 135
2022 11 25 17  03 50 56.555   +46 45 36.69  1.1707 2.1024 153.9 22.0 3.08 135
2022 11 25 18  03 50 52.472   +46 45 14.60  1.1706 2.1024 153.9 22.0 3.27 135
2022 11 25 19  03 50 48.390   +46 44 52.47  1.1706 2.1023 153.9 22.0 3.47 135
2022 11 25 20  03 50 44.308   +46 44 30.29  1.1705 2.1023 153.9 22.0 3.68 135
2022 11 25 21  03 50 40.228   +46 44 08.06  1.1704 2.1023 153.9 22.0 3.89 136
2022 11 25 22  03 50 36.149   +46 43 45.79  1.1704 2.1022 153.9 22.0 4.10 136
2022 11 25 23  03 50 32.071   +46 43 23.47  1.1703 2.1022 153.9 22.0 4.32 136
2022 11 26 00  03 50 27.994   +46 43 01.10  1.1703 2.1022 153.9 22.0 4.54 137
2022 11 26 01  03 50 23.917   +46 42 38.68  1.1702 2.1021 153.9 22.0 4.78 137
2022 11 26 02  03 50 19.842   +46 42 16.21  1.1701 2.1021 153.9 22.0 5.01 137
2022 11 26 03  03 50 15.768   +46 41 53.70  1.1701 2.1021 154.0 22.0 5.25 137
2022 11 26 04  03 50 11.695   +46 41 31.14  1.1700 2.1021 154.0 22.0 5.50 138
2022 11 26 05  03 50 07.623   +46 41 08.53  1.1700 2.1020 154.0 22.0 5.75 138
2022 11 26 06  03 50 03.553   +46 40 45.87  1.1699 2.1020 154.0 22.0 6.01 138
2022 11 26 07  03 49 59.483   +46 40 23.17  1.1698 2.1020 154.0 22.0 6.27 138
2022 11 26 08  03 49 55.414   +46 40 00.42  1.1698 2.1019 154.0 22.0 6.54 139
2022 11 26 09  03 49 51.347   +46 39 37.62  1.1697 2.1019 154.0 22.0 6.82 139
2022 11 26 10  03 49 47.281   +46 39 14.77  1.1697 2.1019 154.0 22.0 7.10 139
2022 11 26 11  03 49 43.216   +46 38 51.88  1.1696 2.1018 154.0 22.0 7.38 140
2022 11 26 12  03 49 39.152   +46 38 28.94  1.1696 2.1018 154.0 22.0 7.67 140
2022 11 26 13  03 49 35.089   +46 38 05.95  1.1695 2.1018 154.0 22.0 7.97 140
2022 11 26 14  03 49 31.028   +46 37 42.91  1.1695 2.1017 154.0 22.0 8.27 140
2022 11 26 15  03 49 26.968   +46 37 19.83  1.1694 2.1017 154.0 22.0 8.58 141
2022 11 26 16  03 49 22.909   +46 36 56.70  1.1693 2.1017 154.1 22.0 8.89 141
2022 11 26 17  03 49 18.851   +46 36 33.52  1.1693 2.1016 154.1 22.0 9.21 141
2022 11 26 18  03 49 14.794   +46 36 10.30  1.1692 2.1016 154.1 22.0 9.53 141
2022 11 26 19  03 49 10.739   +46 35 47.03  1.1692 2.1016 154.1 22.0 9.86 142
2022 11 26 20  03 49 06.685   +46 35 23.71  1.1691 2.1015 154.1 22.0 10.2 142
2022 11 26 21  03 49 02.633   +46 35 00.35  1.1691 2.1015 154.1 22.0 10.5 142
2022 11 26 22  03 48 58.581   +46 34 36.94  1.1690 2.1015 154.1 22.0 10.9 142
2022 11 26 23  03 48 54.531   +46 34 13.48  1.1690 2.1015 154.1 22.0 11.2 143
2022 11 27 00  03 48 50.483   +46 33 49.97  1.1689 2.1014 154.1 22.0 11.6 143
2022 11 27 01  03 48 46.435   +46 33 26.42  1.1689 2.1014 154.1 22.0 12.0 143
2022 11 27 02  03 48 42.390   +46 33 02.82  1.1688 2.1014 154.1 22.0 12.3 143
2022 11 27 03  03 48 38.345   +46 32 39.18  1.1688 2.1013 154.1 22.0 12.7 144
2022 11 27 04  03 48 34.302   +46 32 15.49  1.1687 2.1013 154.1 22.0 13.1 144
2022 11 27 05  03 48 30.260   +46 31 51.75  1.1687 2.1013 154.1 22.0 13.5 144
2022 11 27 06  03 48 26.220   +46 31 27.96  1.1686 2.1012 154.1 22.0 13.8 144
2022 11 27 07  03 48 22.181   +46 31 04.13  1.1686 2.1012 154.1 22.0 14.2 144